Year,Month,Day,Hour,Minute,Value (Times are PST for temperature in C)
2006,07,21,00,00,17.70
2006,07,21,00,01,17.70
2006,07,21,00,02,17.70
2006,07,21,00,03,17.70
2006,07,21,00,04,17.70
2006,07,21,00,05,17.70
2006,07,21,00,06,17.70
2006,07,21,00,07,17.70
2006,07,21,00,08,17.70
2006,07,21,00,09,17.70
2006,07,21,00,10,17.70
2006,07,21,00,11,17.70
2006,07,21,00,12,17.70
2006,07,21,00,13,17.70
2006,07,21,00,14,17.70
2006,07,21,00,15,17.70
2006,07,21,00,16,17.60
2006,07,21,00,17,17.60
2006,07,21,00,18,17.60
2006,07,21,00,19,17.60
2006,07,21,00,20,17.50
2006,07,21,00,21,17.50
2006,07,21,00,22,17.40
2006,07,21,00,23,17.40
2006,07,21,00,24,17.30
2006,07,21,00,25,17.30
2006,07,21,00,26,17.30
2006,07,21,00,27,17.30
2006,07,21,00,28,17.20
2006,07,21,00,29,17.20
2006,07,21,00,30,17.20
2006,07,21,00,31,17.20
2006,07,21,00,32,17.20
2006,07,21,00,33,17.20
2006,07,21,00,34,17.20
2006,07,21,00,35,17.20
2006,07,21,00,36,17.20
2006,07,21,00,37,17.20
2006,07,21,00,38,17.20
2006,07,21,00,39,17.20
2006,07,21,00,40,17.20
2006,07,21,00,41,17.20
2006,07,21,00,42,17.20
2006,07,21,00,43,17.20
2006,07,21,00,44,17.20
2006,07,21,00,45,17.20
2006,07,21,00,46,17.20
2006,07,21,00,47,17.20
2006,07,21,00,48,17.20
2006,07,21,00,49,17.20
2006,07,21,00,50,17.20
2006,07,21,00,51,17.20
2006,07,21,00,52,17.20
2006,07,21,00,53,17.10
2006,07,21,00,54,17.10
2006,07,21,00,55,17.10
2006,07,21,00,56,17.10
2006,07,21,00,57,17.00
2006,07,21,00,58,17.00
2006,07,21,00,59,17.00
2006,07,21,01,00,17.00
2006,07,21,01,01,17.00
2006,07,21,01,02,16.90
2006,07,21,01,03,16.90
2006,07,21,01,04,16.90
2006,07,21,01,05,16.90
2006,07,21,01,06,16.90
2006,07,21,01,07,16.90
2006,07,21,01,08,16.90
2006,07,21,01,09,16.80
2006,07,21,01,10,16.80
2006,07,21,01,11,16.80
2006,07,21,01,12,16.80
2006,07,21,01,13,16.80
2006,07,21,01,14,16.80
2006,07,21,01,15,16.70
2006,07,21,01,16,16.70
2006,07,21,01,17,16.70
2006,07,21,01,18,16.70
2006,07,21,01,19,16.60
2006,07,21,01,20,16.60
2006,07,21,01,21,16.60
2006,07,21,01,22,16.60
2006,07,21,01,23,16.60
2006,07,21,01,24,16.50
2006,07,21,01,25,16.50
2006,07,21,01,26,16.40
2006,07,21,01,27,16.40
2006,07,21,01,28,16.40
2006,07,21,01,29,16.30
2006,07,21,01,30,16.30
2006,07,21,01,31,16.30
2006,07,21,01,32,16.20
2006,07,21,01,33,16.20
2006,07,21,01,34,16.20
2006,07,21,01,35,16.20
2006,07,21,01,36,16.20
2006,07,21,01,37,16.20
2006,07,21,01,38,16.10
2006,07,21,01,39,16.10
2006,07,21,01,40,16.10
2006,07,21,01,41,16.10
2006,07,21,01,42,16.10
2006,07,21,01,43,16.10
2006,07,21,01,44,16.10
2006,07,21,01,45,16.10
2006,07,21,01,46,16.10
2006,07,21,01,47,16.10
2006,07,21,01,48,16.10
2006,07,21,01,49,16.10
2006,07,21,01,50,16.10
2006,07,21,01,51,16.10
2006,07,21,01,52,16.10
2006,07,21,01,53,16.10
2006,07,21,01,54,16.10
2006,07,21,01,55,16.10
2006,07,21,01,56,16.10
2006,07,21,01,57,16.10
2006,07,21,01,58,16.10
2006,07,21,01,59,16.10
2006,07,21,02,00,16.10
2006,07,21,02,01,16.10
2006,07,21,02,02,16.10
2006,07,21,02,03,16.10
2006,07,21,02,04,16.10
2006,07,21,02,05,16.10
2006,07,21,02,06,16.00
2006,07,21,02,07,16.00
2006,07,21,02,08,16.00
2006,07,21,02,09,15.90
2006,07,21,02,10,15.90
2006,07,21,02,11,15.90
2006,07,21,02,12,15.90
2006,07,21,02,13,15.90
2006,07,21,02,14,15.90
2006,07,21,02,15,15.80
2006,07,21,02,16,15.80
2006,07,21,02,17,15.80
2006,07,21,02,18,15.80
2006,07,21,02,19,15.80
2006,07,21,02,20,15.80
2006,07,21,02,21,15.80
2006,07,21,02,22,15.80
2006,07,21,02,23,15.80
2006,07,21,02,24,15.80
2006,07,21,02,25,15.80
2006,07,21,02,26,15.80
2006,07,21,02,27,15.80
2006,07,21,02,28,15.80
2006,07,21,02,29,15.80
2006,07,21,02,30,15.80
2006,07,21,02,31,15.80
2006,07,21,02,32,15.80
2006,07,21,02,33,15.80
2006,07,21,02,34,15.80
2006,07,21,02,35,15.80
2006,07,21,02,36,15.70
2006,07,21,02,37,15.70
2006,07,21,02,38,15.70
2006,07,21,02,39,15.70
2006,07,21,02,40,15.70
2006,07,21,02,41,15.70
2006,07,21,02,42,15.70
2006,07,21,02,43,15.70
2006,07,21,02,44,15.70
2006,07,21,02,45,15.70
2006,07,21,02,46,15.60
2006,07,21,02,47,15.60
2006,07,21,02,48,15.60
2006,07,21,02,49,15.60
2006,07,21,02,50,15.60
2006,07,21,02,51,15.60
2006,07,21,02,52,15.60
2006,07,21,02,53,15.60
2006,07,21,02,54,15.60
2006,07,21,02,55,15.60
2006,07,21,02,56,15.60
2006,07,21,02,57,15.60
2006,07,21,02,58,15.60
2006,07,21,02,59,15.60
2006,07,21,03,00,15.50
2006,07,21,03,01,15.50
2006,07,21,03,02,15.50
2006,07,21,03,03,15.50
2006,07,21,03,04,15.40
2006,07,21,03,05,15.40
2006,07,21,03,06,15.40
2006,07,21,03,07,15.40
2006,07,21,03,08,15.40
2006,07,21,03,09,15.50
2006,07,21,03,10,15.50
2006,07,21,03,11,15.50
2006,07,21,03,12,15.50
2006,07,21,03,13,15.50
2006,07,21,03,14,15.50
2006,07,21,03,15,15.50
2006,07,21,03,16,15.50
2006,07,21,03,17,15.50
2006,07,21,03,18,15.50
2006,07,21,03,19,15.40
2006,07,21,03,20,15.40
2006,07,21,03,21,15.40
2006,07,21,03,22,15.40
2006,07,21,03,23,15.40
2006,07,21,03,24,15.40
2006,07,21,03,25,15.40
2006,07,21,03,26,15.50
2006,07,21,03,27,15.50
2006,07,21,03,28,15.60
2006,07,21,03,29,15.60
2006,07,21,03,30,15.60
2006,07,21,03,31,15.60
2006,07,21,03,32,15.60
2006,07,21,03,33,15.60
2006,07,21,03,34,15.60
2006,07,21,03,35,15.60
2006,07,21,03,36,15.60
2006,07,21,03,37,15.60
2006,07,21,03,38,15.60
2006,07,21,03,39,15.60
2006,07,21,03,40,15.60
2006,07,21,03,41,15.60
2006,07,21,03,42,15.60
2006,07,21,03,43,15.60
2006,07,21,03,44,15.50
2006,07,21,03,45,15.50
2006,07,21,03,46,15.40
2006,07,21,03,47,15.40
2006,07,21,03,48,15.40
2006,07,21,03,49,15.40
2006,07,21,03,50,15.40
2006,07,21,03,51,15.40
2006,07,21,03,52,15.40
2006,07,21,03,53,15.40
2006,07,21,03,54,15.40
2006,07,21,03,55,15.40
2006,07,21,03,56,15.40
2006,07,21,03,57,15.40
2006,07,21,03,58,15.40
2006,07,21,03,59,15.40
2006,07,21,04,00,15.40
2006,07,21,04,01,15.40
2006,07,21,04,02,15.40
2006,07,21,04,03,15.40
2006,07,21,04,04,15.40
2006,07,21,04,05,15.40
2006,07,21,04,06,15.40
2006,07,21,04,07,15.40
2006,07,21,04,08,15.30
2006,07,21,04,09,15.30
2006,07,21,04,10,15.30
2006,07,21,04,11,15.30
2006,07,21,04,12,15.30
2006,07,21,04,13,15.30
2006,07,21,04,14,15.30
2006,07,21,04,15,15.40
2006,07,21,04,16,15.40
2006,07,21,04,17,15.40
2006,07,21,04,18,15.40
2006,07,21,04,19,15.40
2006,07,21,04,20,15.40
2006,07,21,04,21,15.40
2006,07,21,04,22,15.40
2006,07,21,04,23,15.40
2006,07,21,04,24,15.40
2006,07,21,04,25,15.40
2006,07,21,04,26,15.30
2006,07,21,04,27,15.30
2006,07,21,04,28,15.30
2006,07,21,04,29,15.30
2006,07,21,04,30,15.30
2006,07,21,04,31,15.30
2006,07,21,04,32,15.20
2006,07,21,04,33,15.20
2006,07,21,04,34,15.20
2006,07,21,04,35,15.10
2006,07,21,04,36,15.00
2006,07,21,04,37,15.00
2006,07,21,04,38,15.00
2006,07,21,04,39,15.00
2006,07,21,04,40,15.00
2006,07,21,04,41,15.00
2006,07,21,04,42,15.00
2006,07,21,04,43,15.00
2006,07,21,04,44,15.00
2006,07,21,04,45,15.00
2006,07,21,04,46,15.00
2006,07,21,04,47,15.00
2006,07,21,04,48,15.00
2006,07,21,04,49,15.00
2006,07,21,04,50,15.00
2006,07,21,04,51,15.00
2006,07,21,04,52,15.00
2006,07,21,04,53,15.00
2006,07,21,04,54,15.00
2006,07,21,04,55,15.00
2006,07,21,04,56,15.00
2006,07,21,04,57,15.00
2006,07,21,04,58,15.00
2006,07,21,04,59,15.00
2006,07,21,05,00,15.00
2006,07,21,05,01,15.00
2006,07,21,05,02,15.00
2006,07,21,05,03,15.00
2006,07,21,05,04,15.00
2006,07,21,05,05,15.00
2006,07,21,05,06,15.00
2006,07,21,05,07,15.00
2006,07,21,05,08,15.00
2006,07,21,05,09,15.00
2006,07,21,05,10,15.00
2006,07,21,05,11,15.00
2006,07,21,05,12,15.00
2006,07,21,05,13,15.00
2006,07,21,05,14,15.00
2006,07,21,05,15,15.00
2006,07,21,05,16,15.00
2006,07,21,05,17,15.00
2006,07,21,05,18,15.00
2006,07,21,05,19,15.00
2006,07,21,05,20,15.00
2006,07,21,05,21,15.00
2006,07,21,05,22,15.00
2006,07,21,05,23,15.00
2006,07,21,05,24,15.00
2006,07,21,05,25,15.00
2006,07,21,05,26,15.00
2006,07,21,05,27,15.00
2006,07,21,05,28,15.00
2006,07,21,05,29,15.00
2006,07,21,05,30,15.00
2006,07,21,05,31,15.00
2006,07,21,05,32,15.00
2006,07,21,05,33,15.00
2006,07,21,05,34,15.00
2006,07,21,05,35,15.00
2006,07,21,05,36,15.00
2006,07,21,05,37,15.00
2006,07,21,05,38,15.00
2006,07,21,05,39,15.00
2006,07,21,05,40,15.00
2006,07,21,05,41,15.00
2006,07,21,05,42,15.00
2006,07,21,05,43,15.00
2006,07,21,05,44,14.90
2006,07,21,05,45,14.90
2006,07,21,05,46,14.90
2006,07,21,05,47,14.90
2006,07,21,05,48,14.90
2006,07,21,05,49,14.90
2006,07,21,05,50,14.90
2006,07,21,05,51,14.90
2006,07,21,05,52,14.90
2006,07,21,05,53,14.90
2006,07,21,05,54,14.90
2006,07,21,05,55,14.90
2006,07,21,05,56,14.90
2006,07,21,05,57,14.90
2006,07,21,05,58,14.90
2006,07,21,05,59,14.80
2006,07,21,06,00,14.80
2006,07,21,06,01,14.80
2006,07,21,06,02,14.80
2006,07,21,06,03,14.80
2006,07,21,06,04,14.80
2006,07,21,06,05,14.80
2006,07,21,06,06,14.80
2006,07,21,06,07,14.90
2006,07,21,06,08,15.00
2006,07,21,06,09,15.00
2006,07,21,06,10,15.00
2006,07,21,06,11,15.00
2006,07,21,06,12,15.00
2006,07,21,06,13,15.10
2006,07,21,06,14,15.10
2006,07,21,06,15,15.20
2006,07,21,06,16,15.30
2006,07,21,06,17,15.40
2006,07,21,06,18,15.50
2006,07,21,06,19,15.50
2006,07,21,06,20,15.50
2006,07,21,06,21,15.40
2006,07,21,06,22,15.40
2006,07,21,06,23,15.40
2006,07,21,06,24,15.40
2006,07,21,06,25,15.30
2006,07,21,06,26,15.30
2006,07,21,06,27,15.30
2006,07,21,06,28,15.40
2006,07,21,06,29,15.40
2006,07,21,06,30,15.40
2006,07,21,06,31,15.50
2006,07,21,06,32,15.50
2006,07,21,06,33,15.60
2006,07,21,06,34,15.60
2006,07,21,06,35,15.70
2006,07,21,06,36,15.70
2006,07,21,06,37,15.80
2006,07,21,06,38,15.80
2006,07,21,06,39,15.90
2006,07,21,06,40,16.00
2006,07,21,06,41,16.10
2006,07,21,06,42,16.20
2006,07,21,06,43,16.30
2006,07,21,06,44,16.40
2006,07,21,06,45,16.50
2006,07,21,06,46,16.60
2006,07,21,06,47,16.70
2006,07,21,06,48,16.80
2006,07,21,06,49,16.90
2006,07,21,06,50,17.00
2006,07,21,06,51,17.10
2006,07,21,06,52,17.20
2006,07,21,06,53,17.30
2006,07,21,06,54,17.30
2006,07,21,06,55,17.40
2006,07,21,06,56,17.50
2006,07,21,06,57,17.50
2006,07,21,06,58,17.60
2006,07,21,06,59,17.70
2006,07,21,07,00,17.70
2006,07,21,07,01,17.80
2006,07,21,07,02,17.90
2006,07,21,07,03,17.90
2006,07,21,07,04,18.00
2006,07,21,07,05,18.20
2006,07,21,07,06,18.30
2006,07,21,07,07,18.40
2006,07,21,07,08,18.50
2006,07,21,07,09,18.60
2006,07,21,07,10,18.70
2006,07,21,07,11,18.80
2006,07,21,07,12,18.80
2006,07,21,07,13,18.90
2006,07,21,07,14,18.90
2006,07,21,07,15,19.00
2006,07,21,07,16,19.00
2006,07,21,07,17,19.10
2006,07,21,07,18,19.20
2006,07,21,07,19,19.20
2006,07,21,07,20,19.30
2006,07,21,07,21,19.40
2006,07,21,07,22,19.50
2006,07,21,07,23,19.60
2006,07,21,07,24,19.60
2006,07,21,07,25,19.70
2006,07,21,07,26,19.80
2006,07,21,07,27,19.90
2006,07,21,07,28,19.90
2006,07,21,07,29,20.00
2006,07,21,07,30,20.10
2006,07,21,07,31,20.10
2006,07,21,07,32,20.20
2006,07,21,07,33,20.30
2006,07,21,07,34,20.30
2006,07,21,07,35,20.40
2006,07,21,07,36,20.40
2006,07,21,07,37,20.50
2006,07,21,07,38,20.60
2006,07,21,07,39,20.70
2006,07,21,07,40,20.70
2006,07,21,07,41,20.80
2006,07,21,07,42,20.90
2006,07,21,07,43,20.90
2006,07,21,07,44,21.00
2006,07,21,07,45,21.10
2006,07,21,07,46,21.10
2006,07,21,07,47,21.20
2006,07,21,07,48,21.30
2006,07,21,07,49,21.30
2006,07,21,07,50,21.40
2006,07,21,07,51,21.50
2006,07,21,07,52,21.50
2006,07,21,07,53,21.60
2006,07,21,07,54,21.60
2006,07,21,07,55,21.70
2006,07,21,07,56,21.80
2006,07,21,07,57,21.80
2006,07,21,07,58,21.90
2006,07,21,07,59,22.00
2006,07,21,08,00,22.10
2006,07,21,08,01,22.20
2006,07,21,08,02,22.30
2006,07,21,08,03,22.30
2006,07,21,08,04,22.40
2006,07,21,08,05,22.50
2006,07,21,08,06,22.60
2006,07,21,08,07,22.60
2006,07,21,08,08,22.70
2006,07,21,08,09,22.80
2006,07,21,08,10,22.90
2006,07,21,08,11,22.90
2006,07,21,08,12,22.90
2006,07,21,08,13,22.80
2006,07,21,08,14,22.70
2006,07,21,08,15,22.60
2006,07,21,08,16,22.60
2006,07,21,08,17,22.50
2006,07,21,08,18,22.40
2006,07,21,08,19,22.40
2006,07,21,08,20,22.30
2006,07,21,08,21,22.30
2006,07,21,08,22,22.30
2006,07,21,08,23,22.40
2006,07,21,08,24,22.40
2006,07,21,08,25,22.40
2006,07,21,08,26,22.50
2006,07,21,08,27,22.50
2006,07,21,08,28,22.60
2006,07,21,08,29,22.70
2006,07,21,08,30,22.80
2006,07,21,08,31,22.90
2006,07,21,08,32,23.00
2006,07,21,08,33,23.10
2006,07,21,08,34,23.30
2006,07,21,08,35,23.40
2006,07,21,08,36,23.60
2006,07,21,08,37,23.80
2006,07,21,08,38,23.90
2006,07,21,08,39,24.00
2006,07,21,08,40,24.10
2006,07,21,08,41,24.10
2006,07,21,08,42,24.10
2006,07,21,08,43,24.20
2006,07,21,08,44,24.20
2006,07,21,08,45,24.30
2006,07,21,08,46,24.40
2006,07,21,08,47,24.40
2006,07,21,08,48,24.50
2006,07,21,08,49,24.50
2006,07,21,08,50,24.50
2006,07,21,08,51,24.60
2006,07,21,08,52,24.70
2006,07,21,08,53,24.70
2006,07,21,08,54,24.70
2006,07,21,08,55,24.70
2006,07,21,08,56,24.60
2006,07,21,08,57,24.60
2006,07,21,08,58,24.50
2006,07,21,08,59,24.40
2006,07,21,09,00,24.40
2006,07,21,09,01,24.40
2006,07,21,09,02,24.50
2006,07,21,09,03,24.50
2006,07,21,09,04,24.50
2006,07,21,09,05,24.50
2006,07,21,09,06,24.50
2006,07,21,09,07,24.50
2006,07,21,09,08,24.40
2006,07,21,09,09,24.40
2006,07,21,09,10,24.30
2006,07,21,09,11,24.30
2006,07,21,09,12,24.30
2006,07,21,09,13,24.30
2006,07,21,09,14,24.40
2006,07,21,09,15,24.50
2006,07,21,09,16,24.50
2006,07,21,09,17,24.70
2006,07,21,09,18,24.80
2006,07,21,09,19,24.90
2006,07,21,09,20,24.90
2006,07,21,09,21,24.90
2006,07,21,09,22,24.80
2006,07,21,09,23,24.80
2006,07,21,09,24,24.80
2006,07,21,09,25,24.80
2006,07,21,09,26,24.80
2006,07,21,09,27,24.80
2006,07,21,09,28,24.90
2006,07,21,09,29,24.90
2006,07,21,09,30,24.90
2006,07,21,09,31,25.00
2006,07,21,09,32,25.00
2006,07,21,09,33,24.90
2006,07,21,09,34,24.90
2006,07,21,09,35,25.00
2006,07,21,09,36,25.10
2006,07,21,09,37,25.10
2006,07,21,09,38,25.10
2006,07,21,09,39,25.20
2006,07,21,09,40,25.30
2006,07,21,09,41,25.40
2006,07,21,09,42,25.40
2006,07,21,09,43,25.40
2006,07,21,09,44,25.40
2006,07,21,09,45,25.40
2006,07,21,09,46,25.40
2006,07,21,09,47,25.50
2006,07,21,09,48,25.60
2006,07,21,09,49,25.60
2006,07,21,09,50,25.60
2006,07,21,09,51,25.70
2006,07,21,09,52,25.60
2006,07,21,09,53,25.60
2006,07,21,09,54,25.60
2006,07,21,09,55,25.70
2006,07,21,09,56,25.60
2006,07,21,09,57,25.70
2006,07,21,09,58,25.80
2006,07,21,09,59,25.70
2006,07,21,10,00,25.80
2006,07,21,10,01,25.80
2006,07,21,10,02,25.80
2006,07,21,10,03,25.70
2006,07,21,10,04,25.70
2006,07,21,10,05,25.80
2006,07,21,10,06,25.90
2006,07,21,10,07,25.90
2006,07,21,10,08,25.90
2006,07,21,10,09,25.90
2006,07,21,10,10,25.90
2006,07,21,10,11,26.00
2006,07,21,10,12,26.00
2006,07,21,10,13,26.10
2006,07,21,10,14,26.20
2006,07,21,10,15,26.30
2006,07,21,10,16,26.30
2006,07,21,10,17,26.30
2006,07,21,10,18,26.30
2006,07,21,10,19,26.30
2006,07,21,10,20,26.20
2006,07,21,10,21,26.20
2006,07,21,10,22,26.20
2006,07,21,10,23,26.20
2006,07,21,10,24,26.10
2006,07,21,10,25,26.10
2006,07,21,10,26,26.10
2006,07,21,10,27,26.10
2006,07,21,10,28,26.20
2006,07,21,10,29,26.20
2006,07,21,10,30,26.20
2006,07,21,10,31,26.20
2006,07,21,10,32,26.30
2006,07,21,10,33,26.40
2006,07,21,10,34,26.40
2006,07,21,10,35,26.40
2006,07,21,10,36,26.40
2006,07,21,10,37,26.50
2006,07,21,10,38,26.60
2006,07,21,10,39,26.70
2006,07,21,10,40,26.80
2006,07,21,10,41,26.80
2006,07,21,10,42,26.70
2006,07,21,10,43,26.70
2006,07,21,10,44,26.80
2006,07,21,10,45,27.00
2006,07,21,10,46,27.00
2006,07,21,10,47,26.90
2006,07,21,10,48,26.90
2006,07,21,10,49,26.90
2006,07,21,10,50,26.80
2006,07,21,10,51,26.80
2006,07,21,10,52,26.80
2006,07,21,10,53,26.90
2006,07,21,10,54,27.00
2006,07,21,10,55,27.00
2006,07,21,10,56,26.90
2006,07,21,10,57,26.90
2006,07,21,10,58,27.00
2006,07,21,10,59,27.00
2006,07,21,11,00,27.20
2006,07,21,11,01,27.10
2006,07,21,11,02,27.20
2006,07,21,11,03,27.30
2006,07,21,11,04,27.30
2006,07,21,11,05,27.30
2006,07,21,11,06,27.30
2006,07,21,11,07,27.20
2006,07,21,11,08,27.20
2006,07,21,11,09,27.20
2006,07,21,11,10,27.20
2006,07,21,11,11,27.30
2006,07,21,11,12,27.20
2006,07,21,11,13,27.30
2006,07,21,11,14,27.30
2006,07,21,11,15,27.30
2006,07,21,11,16,27.40
2006,07,21,11,17,27.50
2006,07,21,11,18,27.60
2006,07,21,11,19,27.60
2006,07,21,11,20,27.60
2006,07,21,11,21,27.60
2006,07,21,11,22,27.60
2006,07,21,11,23,27.60
2006,07,21,11,24,27.70
2006,07,21,11,25,27.60
2006,07,21,11,26,27.60
2006,07,21,11,27,27.50
2006,07,21,11,28,27.50
2006,07,21,11,29,27.60
2006,07,21,11,30,27.60
2006,07,21,11,31,27.60
2006,07,21,11,32,27.60
2006,07,21,11,33,27.70
2006,07,21,11,34,27.70
2006,07,21,11,35,27.70
2006,07,21,11,36,27.70
2006,07,21,11,37,27.80
2006,07,21,11,38,27.80
2006,07,21,11,39,27.90
2006,07,21,11,40,27.90
2006,07,21,11,41,27.90
2006,07,21,11,42,27.90
2006,07,21,11,43,27.90
2006,07,21,11,44,28.00
2006,07,21,11,45,28.00
2006,07,21,11,46,28.10
2006,07,21,11,47,28.20
2006,07,21,11,48,28.30
2006,07,21,11,49,28.30
2006,07,21,11,50,28.30
2006,07,21,11,51,28.30
2006,07,21,11,52,28.30
2006,07,21,11,53,28.30
2006,07,21,11,54,28.20
2006,07,21,11,55,28.20
2006,07,21,11,56,28.20
2006,07,21,11,57,28.20
2006,07,21,11,58,28.20
2006,07,21,11,59,28.20
2006,07,21,12,00,28.20
2006,07,21,12,01,28.30
2006,07,21,12,02,28.40
2006,07,21,12,03,28.50
2006,07,21,12,04,28.50
2006,07,21,12,05,28.60
2006,07,21,12,06,28.50
2006,07,21,12,07,28.50
2006,07,21,12,08,28.40
2006,07,21,12,09,28.50
2006,07,21,12,10,28.60
2006,07,21,12,11,28.70
2006,07,21,12,12,28.70
2006,07,21,12,13,28.70
2006,07,21,12,14,28.80
2006,07,21,12,15,28.80
2006,07,21,12,16,28.70
2006,07,21,12,17,28.60
2006,07,21,12,18,28.60
2006,07,21,12,19,28.60
2006,07,21,12,20,28.60
2006,07,21,12,21,28.60
2006,07,21,12,22,28.50
2006,07,21,12,23,28.50
2006,07,21,12,24,28.50
2006,07,21,12,25,28.50
2006,07,21,12,26,28.50
2006,07,21,12,27,28.60
2006,07,21,12,28,28.60
2006,07,21,12,29,28.70
2006,07,21,12,30,28.70
2006,07,21,12,31,28.60
2006,07,21,12,32,28.60
2006,07,21,12,33,28.70
2006,07,21,12,34,28.70
2006,07,21,12,35,28.60
2006,07,21,12,36,28.70
2006,07,21,12,37,28.80
2006,07,21,12,38,28.90
2006,07,21,12,39,29.10
2006,07,21,12,40,29.30
2006,07,21,12,41,29.30
2006,07,21,12,42,29.20
2006,07,21,12,43,29.30
2006,07,21,12,44,29.20
2006,07,21,12,45,29.20
2006,07,21,12,46,29.20
2006,07,21,12,47,29.30
2006,07,21,12,48,29.40
2006,07,21,12,49,29.40
2006,07,21,12,50,29.40
2006,07,21,12,51,29.40
2006,07,21,12,52,29.40
2006,07,21,12,53,29.30
2006,07,21,12,54,29.40
2006,07,21,12,55,29.40
2006,07,21,12,56,29.30
2006,07,21,12,57,29.30
2006,07,21,12,58,29.30
2006,07,21,12,59,29.20
2006,07,21,13,00,29.10
2006,07,21,13,01,29.10
2006,07,21,13,02,29.20
2006,07,21,13,03,29.20
2006,07,21,13,04,29.20
2006,07,21,13,05,29.20
2006,07,21,13,06,29.10
2006,07,21,13,07,29.10
2006,07,21,13,08,29.20
2006,07,21,13,09,29.30
2006,07,21,13,10,29.40
2006,07,21,13,11,29.50
2006,07,21,13,12,29.50
2006,07,21,13,13,29.60
2006,07,21,13,14,29.70
2006,07,21,13,15,29.70
2006,07,21,13,16,29.80
2006,07,21,13,17,29.80
2006,07,21,13,18,29.70
2006,07,21,13,19,29.60
2006,07,21,13,20,29.60
2006,07,21,13,21,29.50
2006,07,21,13,22,29.50
2006,07,21,13,23,29.60
2006,07,21,13,24,29.60
2006,07,21,13,25,29.60
2006,07,21,13,26,29.70
2006,07,21,13,27,29.80
2006,07,21,13,28,29.80
2006,07,21,13,29,29.80
2006,07,21,13,30,29.80
2006,07,21,13,31,29.70
2006,07,21,13,32,29.70
2006,07,21,13,33,29.70
2006,07,21,13,34,29.70
2006,07,21,13,35,29.70
2006,07,21,13,36,29.70
2006,07,21,13,37,29.90
2006,07,21,13,38,30.00
2006,07,21,13,39,29.90
2006,07,21,13,40,29.90
2006,07,21,13,41,29.80
2006,07,21,13,42,29.70
2006,07,21,13,43,29.70
2006,07,21,13,44,29.70
2006,07,21,13,45,29.70
2006,07,21,13,46,29.70
2006,07,21,13,47,29.70
2006,07,21,13,48,29.70
2006,07,21,13,49,29.90
2006,07,21,13,50,29.90
2006,07,21,13,51,29.90
2006,07,21,13,52,29.90
2006,07,21,13,53,29.90
2006,07,21,13,54,30.00
2006,07,21,13,55,30.10
2006,07,21,13,56,30.20
2006,07,21,13,57,30.00
2006,07,21,13,58,29.90
2006,07,21,13,59,29.80
2006,07,21,14,00,29.80
2006,07,21,14,01,29.80
2006,07,21,14,02,29.90
2006,07,21,14,03,30.00
2006,07,21,14,04,30.10
2006,07,21,14,05,30.20
2006,07,21,14,06,30.20
2006,07,21,14,07,30.20
2006,07,21,14,08,30.20
2006,07,21,14,09,30.30
2006,07,21,14,10,30.40
2006,07,21,14,11,30.50
2006,07,21,14,12,30.40
2006,07,21,14,13,30.30
2006,07,21,14,14,30.20
2006,07,21,14,15,30.20
2006,07,21,14,16,30.20
2006,07,21,14,17,30.10
2006,07,21,14,18,30.00
2006,07,21,14,19,30.00
2006,07,21,14,20,30.00
2006,07,21,14,21,30.00
2006,07,21,14,22,30.10
2006,07,21,14,23,30.10
2006,07,21,14,24,30.10
2006,07,21,14,25,30.20
2006,07,21,14,26,30.20
2006,07,21,14,27,30.30
2006,07,21,14,28,30.30
2006,07,21,14,29,30.30
2006,07,21,14,30,30.20
2006,07,21,14,31,30.30
2006,07,21,14,32,30.40
2006,07,21,14,33,30.40
2006,07,21,14,34,30.40
2006,07,21,14,35,30.40
2006,07,21,14,36,30.50
2006,07,21,14,37,30.50
2006,07,21,14,38,30.60
2006,07,21,14,39,30.60
2006,07,21,14,40,30.60
2006,07,21,14,41,30.50
2006,07,21,14,42,30.50
2006,07,21,14,43,30.50
2006,07,21,14,44,30.40
2006,07,21,14,45,30.40
2006,07,21,14,46,30.40
2006,07,21,14,47,30.40
2006,07,21,14,48,30.40
2006,07,21,14,49,30.30
2006,07,21,14,50,30.30
2006,07,21,14,51,30.30
2006,07,21,14,52,30.20
2006,07,21,14,53,30.20
2006,07,21,14,54,30.10
2006,07,21,14,55,30.10
2006,07,21,14,56,30.20
2006,07,21,14,57,30.30
2006,07,21,14,58,30.30
2006,07,21,14,59,30.30
2006,07,21,15,00,30.20
2006,07,21,15,01,30.20
2006,07,21,15,02,30.20
2006,07,21,15,03,30.20
2006,07,21,15,04,30.20
2006,07,21,15,05,30.20
2006,07,21,15,06,30.20
2006,07,21,15,07,30.20
2006,07,21,15,08,30.20
2006,07,21,15,09,30.20
2006,07,21,15,10,30.30
2006,07,21,15,11,30.30
2006,07,21,15,12,30.20
2006,07,21,15,13,30.10
2006,07,21,15,14,30.10
2006,07,21,15,15,30.20
2006,07,21,15,16,30.30
2006,07,21,15,17,30.40
2006,07,21,15,18,30.50
2006,07,21,15,19,30.60
2006,07,21,15,20,30.60
2006,07,21,15,21,30.60
2006,07,21,15,22,30.60
2006,07,21,15,23,30.70
2006,07,21,15,24,30.60
2006,07,21,15,25,30.60
2006,07,21,15,26,30.60
2006,07,21,15,27,30.70
2006,07,21,15,28,30.70
2006,07,21,15,29,30.70
2006,07,21,15,30,30.80
2006,07,21,15,31,30.80
2006,07,21,15,32,30.90
2006,07,21,15,33,31.00
2006,07,21,15,34,31.10
2006,07,21,15,35,31.10
2006,07,21,15,36,31.10
2006,07,21,15,37,31.10
2006,07,21,15,38,31.10
2006,07,21,15,39,31.10
2006,07,21,15,40,31.10
2006,07,21,15,41,31.10
2006,07,21,15,42,31.10
2006,07,21,15,43,31.10
2006,07,21,15,44,31.10
2006,07,21,15,45,31.20
2006,07,21,15,46,31.20
2006,07,21,15,47,31.20
2006,07,21,15,48,31.30
2006,07,21,15,49,31.40
2006,07,21,15,50,31.40
2006,07,21,15,51,31.40
2006,07,21,15,52,31.30
2006,07,21,15,53,31.20
2006,07,21,15,54,31.20
2006,07,21,15,55,31.20
2006,07,21,15,56,31.30
2006,07,21,15,57,31.40
2006,07,21,15,58,31.40
2006,07,21,15,59,31.40
2006,07,21,16,00,31.50
2006,07,21,16,01,31.60
2006,07,21,16,02,31.60
2006,07,21,16,03,31.60
2006,07,21,16,04,31.60
2006,07,21,16,05,31.80
2006,07,21,16,06,31.80
2006,07,21,16,07,31.90
2006,07,21,16,08,31.90
2006,07,21,16,09,32.00
2006,07,21,16,10,32.00
2006,07,21,16,11,31.90
2006,07,21,16,12,31.80
2006,07,21,16,13,31.80
2006,07,21,16,14,31.90
2006,07,21,16,15,31.90
2006,07,21,16,16,31.80
2006,07,21,16,17,31.80
2006,07,21,16,18,31.90
2006,07,21,16,19,32.00
2006,07,21,16,20,32.00
2006,07,21,16,21,31.90
2006,07,21,16,22,31.90
2006,07,21,16,23,31.90
2006,07,21,16,24,31.90
2006,07,21,16,25,31.90
2006,07,21,16,26,32.00
2006,07,21,16,27,32.00
2006,07,21,16,28,32.10
2006,07,21,16,29,32.20
2006,07,21,16,30,32.20
2006,07,21,16,31,32.10
2006,07,21,16,32,32.10
2006,07,21,16,33,32.00
2006,07,21,16,34,32.00
2006,07,21,16,35,31.90
2006,07,21,16,36,31.90
2006,07,21,16,37,31.90
2006,07,21,16,38,31.90
2006,07,21,16,39,32.00
2006,07,21,16,40,32.00
2006,07,21,16,41,32.10
2006,07,21,16,42,32.20
2006,07,21,16,43,32.30
2006,07,21,16,44,32.20
2006,07,21,16,45,32.20
2006,07,21,16,46,32.10
2006,07,21,16,47,32.10
2006,07,21,16,48,32.10
2006,07,21,16,49,32.10
2006,07,21,16,50,32.10
2006,07,21,16,51,32.10
2006,07,21,16,52,32.00
2006,07,21,16,53,31.90
2006,07,21,16,54,31.90
2006,07,21,16,55,31.90
2006,07,21,16,56,32.00
2006,07,21,16,57,32.00
2006,07,21,16,58,32.00
2006,07,21,16,59,32.10
2006,07,21,17,00,32.10
2006,07,21,17,01,32.10
2006,07,21,17,02,32.10
2006,07,21,17,03,32.00
2006,07,21,17,04,32.00
2006,07,21,17,05,32.00
2006,07,21,17,06,32.10
2006,07,21,17,07,32.00
2006,07,21,17,08,32.00
2006,07,21,17,09,31.90
2006,07,21,17,10,31.90
2006,07,21,17,11,32.00
2006,07,21,17,12,32.10
2006,07,21,17,13,32.20
2006,07,21,17,14,32.20
2006,07,21,17,15,32.20
2006,07,21,17,16,32.30
2006,07,21,17,17,32.30
2006,07,21,17,18,32.30
2006,07,21,17,19,32.30